COOK73 LFED-UKDE

Flight info

Callsign COOK73
Flight time N/A
Altitude 35000
Route KORER UN482 ANG UL976 OBATO UM163 TSU UN858 OQQAL DCT DIKOL DCT LIPNI UN858 LIMGO Z111 PITES DCT LOHRE L984 SULUS Z650 TONSU Z35 RONIG N869 OKG DCT KOZLI DCT PADKA L984 DIBED/K0824F350 L984 NIROV M991 KOSNA DCT UMSOT
Aircraft C25C/M-SDE2E3FGHRWXY/LB1

Departure

Time N/A
Airport Pontivy Airfield (LFED)

Arrival

Time 2026-04-21 21:11
Airport Zaporizhzhia International Airport (UKDE)
Time Latitude Longitude Altitude Speed Heading
2026-04-21 19:46 49.91024 22.23509 35114 ft 427 kts 90°
2026-04-21 19:46 49.90917 22.28119 35111 ft 428 kts 90°
2026-04-21 19:47 49.90698 22.37385 35112 ft 431 kts 90°
2026-04-21 19:47 49.90468 22.46693 35116 ft 433 kts 90°
2026-04-21 19:48 49.90229 22.56031 35119 ft 434 kts 90°
2026-04-21 19:48 49.89986 22.65339 35123 ft 435 kts 90°
2026-04-21 19:49 49.89729 22.74720 35125 ft 436 kts 90°
2026-04-21 19:49 49.89470 22.84121 35128 ft 437 kts 90°
2026-04-21 19:50 49.89246 22.91942 35127 ft 437 kts 90°
2026-04-21 19:50 49.88922 23.02952 35124 ft 438 kts 90°
2026-04-21 19:51 49.87980 23.12299 35123 ft 440 kts 99°
2026-04-21 19:51 49.86756 23.21601 35120 ft 441 kts 99°
2026-04-21 19:52 49.85525 23.30838 35123 ft 441 kts 99°
2026-04-21 19:52 49.84280 23.40149 35120 ft 441 kts 99°
2026-04-21 19:53 49.83024 23.49460 35125 ft 442 kts 99°
2026-04-21 19:53 49.81761 23.58776 35122 ft 442 kts 100°
2026-04-21 19:54 49.80491 23.68090 35122 ft 442 kts 100°
2026-04-21 19:54 49.79220 23.77347 35124 ft 443 kts 100°
2026-04-21 19:55 49.77933 23.86663 35128 ft 443 kts 100°
2026-04-21 19:55 49.76635 23.95992 35126 ft 443 kts 100°
2026-04-21 19:56 49.75329 24.05312 35127 ft 444 kts 100°
2026-04-21 19:56 49.74024 24.14577 35124 ft 444 kts 100°
2026-04-21 19:57 49.72702 24.23903 35126 ft 444 kts 101°
2026-04-21 19:57 49.71373 24.33235 35121 ft 445 kts 101°
2026-04-21 19:58 49.70034 24.42567 35122 ft 445 kts 101°
2026-04-21 19:58 49.68684 24.51899 35123 ft 445 kts 101°
2026-04-21 19:59 49.67328 24.61233 35120 ft 446 kts 101°
2026-04-21 19:59 49.65976 24.70500 35121 ft 446 kts 101°
2026-04-21 20:00 49.64602 24.79835 35122 ft 446 kts 101°
2026-04-21 20:00 49.63222 24.89166 35113 ft 446 kts 101°
2026-04-21 20:01 49.61832 24.98510 35114 ft 447 kts 101°
2026-04-21 20:01 49.60443 25.07782 35122 ft 447 kts 102°
2026-04-21 20:02 49.59262 25.15603 35116 ft 447 kts 102°
2026-04-21 20:02 49.57614 25.26453 35116 ft 448 kts 102°
2026-04-21 20:03 49.56186 25.35789 35118 ft 448 kts 102°
2026-04-21 20:03 49.54759 25.45059 35119 ft 448 kts 102°
2026-04-21 20:04 49.53317 25.54381 35114 ft 448 kts 102°
2026-04-21 20:04 49.51867 25.63711 35114 ft 448 kts 102°
2026-04-21 20:05 49.50408 25.73026 35112 ft 448 kts 102°
2026-04-21 20:05 49.48953 25.82281 35110 ft 448 kts 102°
2026-04-21 20:06 49.47477 25.91588 35112 ft 448 kts 103°
2026-04-21 20:06 49.45995 26.00896 35111 ft 448 kts 103°
2026-04-21 20:07 49.44505 26.10203 35110 ft 448 kts 103°
2026-04-21 20:07 49.43261 26.17934 35112 ft 449 kts 103°
2026-04-21 20:08 49.41512 26.28746 35111 ft 449 kts 103°
2026-04-21 20:08 49.39997 26.38051 35111 ft 449 kts 103°
2026-04-21 20:09 49.38474 26.47354 35110 ft 449 kts 103°
2026-04-21 20:09 49.36941 26.56648 35109 ft 450 kts 103°
2026-04-21 20:10 49.35400 26.65954 35107 ft 450 kts 103°
2026-04-21 20:10 49.33860 26.75185 35107 ft 450 kts 103°
2026-04-21 20:11 49.32302 26.84472 35107 ft 450 kts 103°
2026-04-21 20:11 49.30737 26.93761 35109 ft 450 kts 104°
2026-04-21 20:12 49.29165 27.03050 35104 ft 450 kts 104°
2026-04-21 20:12 49.27851 27.10765 35107 ft 450 kts 104°
2026-04-21 20:13 49.26004 27.21549 35105 ft 451 kts 104°
2026-04-21 20:13 49.24406 27.30827 35104 ft 451 kts 104°
2026-04-21 20:14 49.22801 27.40103 35101 ft 451 kts 104°
2026-04-21 20:14 49.21200 27.49311 35100 ft 451 kts 104°
2026-04-21 20:15 49.19579 27.58579 35100 ft 451 kts 104°
2026-04-21 20:15 49.17950 27.67845 35097 ft 451 kts 104°
2026-04-21 20:16 49.16315 27.77105 35097 ft 451 kts 104°
2026-04-21 20:16 49.14682 27.86291 35097 ft 451 kts 105°
2026-04-21 20:17 49.13041 27.95481 35099 ft 447 kts 105°
2026-04-21 20:17 49.11405 28.04599 35094 ft 444 kts 105°
2026-04-21 20:18 49.10048 28.12144 35084 ft 443 kts 105°
2026-04-21 20:18 49.08142 28.22657 35078 ft 442 kts 105°
2026-04-21 20:19 49.06498 28.31679 35076 ft 441 kts 105°
2026-04-21 20:19 49.04853 28.40676 35076 ft 440 kts 105°
2026-04-21 20:20 49.03199 28.49664 35075 ft 440 kts 105°
2026-04-21 20:20 49.01553 28.58585 35074 ft 440 kts 105°
2026-04-21 20:21 48.99886 28.67558 35073 ft 440 kts 105°
2026-04-21 20:21 48.98212 28.76525 35071 ft 440 kts 105°
2026-04-21 20:22 48.96533 28.85481 35073 ft 440 kts 105°
2026-04-21 20:22 48.94020 28.98846 35070 ft 440 kts 105°
2026-04-21 20:23 48.92325 29.07799 35069 ft 440 kts 106°
2026-04-21 20:23 48.90913 29.15236 35069 ft 441 kts 106°
2026-04-21 20:24 48.89206 29.24185 35069 ft 441 kts 106°
2026-04-21 20:24 48.87212 29.34576 35066 ft 441 kts 106°
2026-04-21 20:25 48.85768 29.42071 35068 ft 441 kts 106°
2026-04-21 20:25 48.84050 29.50952 35066 ft 441 kts 106°
2026-04-21 20:26 48.82313 29.59884 35065 ft 441 kts 106°
2026-04-21 20:26 48.80569 29.68817 35060 ft 442 kts 106°
2026-04-21 20:27 48.78816 29.77744 35060 ft 442 kts 107°
2026-04-21 20:27 48.77070 29.86606 35061 ft 442 kts 107°
2026-04-21 20:28 48.75302 29.95523 35063 ft 442 kts 107°
2026-04-21 20:28 48.73529 30.04436 35066 ft 442 kts 107°
2026-04-21 20:29 48.71746 30.13351 35066 ft 442 kts 107°
2026-04-21 20:29 48.69958 30.22265 35064 ft 442 kts 107°
2026-04-21 20:30 48.68171 30.31116 35065 ft 443 kts 107°
2026-04-21 20:30 48.66368 30.40022 35063 ft 443 kts 107°
2026-04-21 20:31 48.64555 30.48920 35059 ft 443 kts 107°
2026-04-21 20:31 48.62734 30.57837 35061 ft 443 kts 107°
2026-04-21 20:32 48.60917 30.66676 35058 ft 444 kts 107°
2026-04-21 20:32 48.59081 30.75579 35059 ft 444 kts 107°
2026-04-21 20:33 48.57238 30.84478 35056 ft 444 kts 108°
2026-04-21 20:33 48.55385 30.93374 35056 ft 444 kts 108°
2026-04-21 20:34 48.53539 31.02204 35052 ft 444 kts 108°
2026-04-21 20:34 48.51671 31.11097 35054 ft 445 kts 108°
2026-04-21 20:35 48.49797 31.19987 35052 ft 445 kts 108°
2026-04-21 20:35 48.47914 31.28874 35051 ft 445 kts 108°
2026-04-21 20:36 48.46037 31.37697 35048 ft 445 kts 108°
2026-04-21 20:36 48.44347 31.46670 35048 ft 446 kts 102°
2026-04-21 20:37 48.43004 31.55776 35047 ft 446 kts 103°
2026-04-21 20:37 48.41651 31.64888 35046 ft 446 kts 102°
2026-04-21 20:38 48.40305 31.73943 35045 ft 446 kts 103°
2026-04-21 20:38 48.38936 31.83054 35044 ft 446 kts 103°
2026-04-21 20:39 48.37565 31.92162 35042 ft 447 kts 103°
2026-04-21 20:39 48.36180 32.01277 35046 ft 447 kts 103°
2026-04-21 20:40 48.34801 32.10326 35040 ft 447 kts 103°
2026-04-21 20:40 48.33404 32.19433 35039 ft 447 kts 103°
2026-04-21 20:41 48.31999 32.28544 35038 ft 448 kts 103°
2026-04-21 20:41 48.30584 32.37653 35038 ft 448 kts 103°
2026-04-21 20:42 48.29163 32.46760 35039 ft 448 kts 103°
2026-04-21 20:42 48.27743 32.55816 35034 ft 448 kts 103°
2026-04-21 20:43 48.26305 32.64922 35031 ft 449 kts 104°
2026-04-21 20:43 48.24859 32.74046 35027 ft 449 kts 104°
2026-04-21 20:44 48.23414 32.83094 34871 ft 452 kts 104°
2026-04-21 20:44 48.22671 32.87735 34305 ft 459 kts 104°
2026-04-21 20:44 48.21932 32.92326 33666 ft 448 kts 104°
2026-04-21 20:45 48.21213 32.96803 33067 ft 436 kts 104°
2026-04-21 20:45 48.20509 33.01165 32502 ft 425 kts 104°
2026-04-21 20:45 48.19816 33.05428 31949 ft 417 kts 104°
2026-04-21 20:45 48.19139 33.09610 31406 ft 409 kts 104°
2026-04-21 20:46 48.18469 33.13718 30874 ft 403 kts 104°
2026-04-21 20:46 48.17809 33.17770 30344 ft 398 kts 104°
2026-04-21 20:46 48.17163 33.21717 29777 ft 393 kts 104°
2026-04-21 20:46 48.16514 33.25671 29158 ft 389 kts 104°
2026-04-21 20:47 48.15873 33.29587 28562 ft 385 kts 104°
2026-04-21 20:47 48.15232 33.33466 27978 ft 382 kts 104°
2026-04-21 20:47 48.14597 33.37315 27420 ft 379 kts 104°
2026-04-21 20:47 48.13967 33.41133 26874 ft 377 kts 104°
2026-04-21 20:48 48.13336 33.44931 26342 ft 375 kts 104°
2026-04-21 20:48 48.12709 33.48704 25828 ft 373 kts 104°
2026-04-21 20:48 48.12093 33.52408 25338 ft 371 kts 104°
2026-04-21 20:48 48.11469 33.56140 24859 ft 369 kts 104°
2026-04-21 20:49 48.10848 33.59860 24382 ft 367 kts 104°
2026-04-21 20:49 48.10227 33.63561 23924 ft 366 kts 104°
2026-04-21 20:49 48.09609 33.67250 23440 ft 365 kts 104°
2026-04-21 20:49 48.08988 33.70924 22901 ft 364 kts 104°
2026-04-21 20:50 48.08371 33.74582 22388 ft 363 kts 105°
2026-04-21 20:50 48.07756 33.78234 21882 ft 362 kts 104°
2026-04-21 20:50 48.07145 33.81825 21393 ft 361 kts 105°
2026-04-21 20:50 48.06532 33.85457 20911 ft 360 kts 105°
2026-04-21 20:51 48.05912 33.89077 20449 ft 359 kts 105°
2026-04-21 20:51 48.05299 33.92689 19999 ft 358 kts 105°
2026-04-21 20:51 48.04683 33.96285 19557 ft 357 kts 105°
2026-04-21 20:51 48.04070 33.99870 19119 ft 355 kts 105°
2026-04-21 20:52 48.03459 34.03439 18689 ft 354 kts 105°
2026-04-21 20:52 48.02847 34.06990 18260 ft 352 kts 105°
2026-04-21 20:52 48.02249 34.10463 17784 ft 350 kts 105°
2026-04-21 20:52 48.01643 34.13986 17316 ft 349 kts 105°
2026-04-21 20:53 48.01035 34.17481 16854 ft 347 kts 105°
2026-04-21 20:53 48.00436 34.20962 16407 ft 345 kts 105°
2026-04-21 20:53 47.99833 34.24424 15977 ft 344 kts 105°
2026-04-21 20:53 47.99233 34.27871 15575 ft 341 kts 105°
2026-04-21 20:54 47.98641 34.31275 15303 ft 336 kts 105°
2026-04-21 20:54 47.98054 34.34632 15034 ft 332 kts 105°
2026-04-21 20:54 47.97475 34.37954 14753 ft 329 kts 105°
2026-04-21 20:54 47.96903 34.41201 14504 ft 327 kts 105°
2026-04-21 20:55 47.96329 34.44478 14241 ft 326 kts 105°
2026-04-21 20:55 47.95755 34.47740 13981 ft 324 kts 105°
2026-04-21 20:55 47.95192 34.50930 13720 ft 311 kts 105°
2026-04-21 20:55 47.94652 34.53998 13412 ft 301 kts 105°
2026-04-21 20:56 47.94127 34.56976 13122 ft 293 kts 105°
2026-04-21 20:56 47.93611 34.59886 12834 ft 287 kts 105°
2026-04-21 20:56 47.93102 34.62741 12542 ft 283 kts 105°
2026-04-21 20:56 47.92659 34.65540 12243 ft 279 kts 100°
2026-04-21 20:57 47.92222 34.68346 11940 ft 277 kts 105°
2026-04-21 20:57 47.91713 34.71100 11643 ft 274 kts 104°
2026-04-21 20:57 47.91255 34.73841 11361 ft 273 kts 103°
2026-04-21 20:57 47.90816 34.76589 11085 ft 271 kts 103°
2026-04-21 20:58 47.90376 34.79311 10811 ft 269 kts 103°
2026-04-21 20:58 47.89931 34.82011 10548 ft 268 kts 103°
2026-04-21 20:58 47.89486 34.84700 10281 ft 267 kts 103°
2026-04-21 20:58 47.89052 34.87343 10026 ft 265 kts 103°
2026-04-21 20:59 47.88612 34.90007 9768 ft 264 kts 103°
2026-04-21 20:59 47.88174 34.92660 9487 ft 263 kts 103°
2026-04-21 20:59 47.87737 34.95301 9220 ft 262 kts 103°
2026-04-21 20:59 47.87301 34.97934 8852 ft 265 kts 103°
2026-04-21 21:00 47.86856 35.00613 8378 ft 266 kts 102°
2026-04-21 21:00 47.86417 35.03260 7898 ft 258 kts 102°
2026-04-21 21:00 47.85989 35.05783 7426 ft 245 kts 101°
2026-04-21 21:00 47.85588 35.08204 6960 ft 237 kts 101°
2026-04-21 21:01 47.85202 35.10519 6563 ft 231 kts 100°
2026-04-21 21:01 47.84826 35.12805 6142 ft 225 kts 100°
2026-04-21 21:01 47.84446 35.15047 5699 ft 221 kts 100°
2026-04-21 21:01 47.84079 35.17247 5305 ft 218 kts 100°
2026-04-21 21:02 47.83712 35.19417 4895 ft 214 kts 100°
2026-04-21 21:02 47.83367 35.21440 4673 ft 188 kts 99°
2026-04-21 21:02 47.83078 35.23155 4505 ft 146 kts 99°
2026-04-21 21:02 47.82853 35.24451 4235 ft 122 kts 96°
2026-04-21 21:03 47.82654 35.25671 3973 ft 119 kts 98°
2026-04-21 21:03 47.82458 35.26849 3651 ft 118 kts 96°
2026-04-21 21:03 47.82259 35.28041 3433 ft 118 kts 96°
2026-04-21 21:03 47.82083 35.29220 3213 ft 115 kts 88°
2026-04-21 21:04 47.82182 35.30358 2916 ft 112 kts 80°
2026-04-21 21:04 47.81709 35.31342 2564 ft 130 kts 144°
2026-04-21 21:04 47.80981 35.32166 2363 ft 133 kts 139°
2026-04-21 21:04 47.80065 35.32489 2126 ft 136 kts 174°
2026-04-21 21:05 47.79171 35.32709 2097 ft 130 kts 171°
2026-04-21 21:05 47.78268 35.32897 2034 ft 131 kts 169°
2026-04-21 21:05 47.77367 35.33092 2040 ft 130 kts 171°
2026-04-21 21:05 47.76462 35.33255 2009 ft 133 kts 183°
2026-04-21 21:06 47.75816 35.32439 1939 ft 125 kts 266°
2026-04-21 21:06 47.75971 35.31262 1984 ft 114 kts 291°
2026-04-21 21:06 47.76140 35.30112 2058 ft 113 kts 292°
2026-04-21 21:06 47.76329 35.28983 2118 ft 113 kts 291°
2026-04-21 21:07 47.76538 35.27879 2175 ft 112 kts 295°
2026-04-21 21:07 47.76797 35.26792 2160 ft 111 kts 299°
2026-04-21 21:07 47.77240 35.25905 2083 ft 107 kts 328°
2026-04-21 21:07 47.77842 35.25274 2103 ft 108 kts 336°
2026-04-21 21:08 47.78572 35.24945 1974 ft 108 kts 352°
2026-04-21 21:08 47.79324 35.24942 1834 ft 110 kts
2026-04-21 21:08 47.80062 35.25248 1696 ft 109 kts 20°
2026-04-21 21:08 47.80674 35.25843 1541 ft 100 kts 31°
2026-04-21 21:09 47.81213 35.26375 1386 ft 88 kts 31°
2026-04-21 21:09 47.81636 35.27181 1158 ft 103 kts 55°
2026-04-21 21:09 47.81999 35.28089 1168 ft 109 kts 52°
2026-04-21 21:09 47.82504 35.28933 1064 ft 111 kts 38°
2026-04-21 21:10 47.83139 35.29456 831 ft 103 kts 20°
2026-04-21 21:10 47.83811 35.29832 614 ft 101 kts 18°
2026-04-21 21:10 47.84458 35.30163 488 ft 97 kts 18°
2026-04-21 21:10 47.85095 35.30499 455 ft 96 kts 21°
2026-04-21 21:11 47.85714 35.30881 407 ft 98 kts 21°
2026-04-21 21:11 47.86319 35.31265 354 ft 90 kts 20°
2026-04-21 21:11 47.86754 35.31526 359 ft 35 kts 22°
2026-04-21 21:11 47.86968 35.31654 363 ft 32 kts 22°
2026-04-21 21:12 47.87163 35.31779 368 ft 29 kts 23°
2026-04-21 21:12 47.87321 35.31876 371 ft 16 kts 22°
2026-04-21 21:12 47.87387 35.31971 373 ft 15 kts 103°
2026-04-21 21:12 47.87353 35.32041 371 ft 0 kts 135°
2026-04-21 21:50 47.87313 35.32101 371 ft 14 kts 135°
2026-04-21 21:51 47.87223 35.32088 369 ft 15 kts 201°
2026-04-21 21:51 47.87113 35.32023 367 ft 18 kts 204°
2026-04-21 21:51 47.86988 35.31942 365 ft 21 kts 203°
2026-04-21 21:51 47.86847 35.31853 365 ft 23 kts 203°
2026-04-21 21:52 47.86711 35.31767 360 ft 13 kts 203°
2026-04-21 21:52 47.86619 35.31718 359 ft 15 kts 185°
2026-04-21 21:52 47.86538 35.31726 361 ft 11 kts 186°
2026-04-21 21:52 47.86493 35.31701 357 ft 7 kts 202°
2026-04-21 21:53 47.86463 35.31683 357 ft 4 kts 203°
2026-04-21 21:53 47.86451 35.31655 361 ft 0 kts 273°
2026-04-21 21:53 47.86454 35.31637 357 ft 0 kts 289°